Date,TemperatureHighF,TemperatureAvgF,TemperatureLowF,DewpointHighF,DewpointAvgF,DewpointLowF,HumidityHigh,HumidityAvg,HumidityLow,PressureMaxIn,PressureMinIn,WindSpeedMaxMPH,WindSpeedAvgMPH,GustSpeedMaxMPH,PrecipitationSumIn
2013-1-1,37.4,34.2,26.1,31.5,25.8,14.4,89,71,60,29.92,29.75,28,8,28,0.17
2013-1-2,31.2,26.1,21.2,21.0,16.7,11.5,82,67,57,30.09,29.91,26,6,26,0.00
2013-1-3,27.0,21.9,17.6,20.0,14.6,11.2,86,74,55,30.15,30.04,23,4,23,0.00
2013-1-4,36.9,33.0,26.6,29.5,26.2,19.4,83,76,66,30.04,29.87,24,6,25,0.02
2013-1-5,39.8,33.2,23.5,29.7,25.9,20.5,89,75,59,30.31,29.89,23,5,29,0.05
2013-1-6,40.1,32.9,23.4,35.7,30.2,20.6,97,90,76,30.26,29.98,18,2,18,0.15
2013-1-7,41.3,33.6,24.7,35.3,29.8,22.7,96,86,75,30.45,30.00,17,3,17,0.10
2013-1-8,43.5,36.6,24.8,36.3,33.1,23.3,96,87,74,30.43,30.33,22,4,23,0.09
2013-1-9,44.9,37.3,26.7,41.6,34.7,25.5,98,90,81,30.44,30.05,25,3,25,0.00
2013-1-10,44.3,41.1,35.6,36.7,30.8,27.9,81,67,55,30.53,30.08,26,6,26,0.00
2013-1-11,43.1,38.2,28.5,38.5,32.4,25.3,94,80,70,30.53,30.26,15,2,15,0.07
2013-1-12,47.2,42.5,38.0,43.8,40.2,36.0,96,92,78,30.28,30.16,13,2,13,0.04
2013-1-13,50.7,46.5,42.2,49.8,45.5,40.9,98,96,94,30.21,30.07,15,3,17,0.00
2013-1-14,52.6,49.0,44.7,52.3,46.8,37.2,99,92,66,30.29,29.96,25,4,25,0.01
2013-1-15,44.6,40.8,38.3,40.4,38.1,36.1,96,90,78,30.32,30.23,10,1,12,0.16
2013-1-16,43.2,40.0,37.0,42.4,38.9,35.9,98,96,93,30.26,29.79,20,3,20,0.67
2013-1-17,41.7,37.6,33.6,36.0,33.8,25.5,96,86,73,30.10,29.88,17,4,17,0.01
2013-1-18,33.5,25.2,21.8,26.3,15.3,7.2,94,67,50,30.51,30.05,27,5,27,0.00
2013-1-19,44.3,37.5,21.3,40.8,31.9,12.4,90,80,62,30.48,29.99,34,8,36,0.23
2013-1-20,49.9,43.9,31.8,43.3,36.6,16.9,93,76,54,29.99,29.62,28,8,31,0.00
2013-1-21,31.7,28.7,26.1,27.2,17.1,11.0,94,63,46,30.14,29.79,24,4,30,0.00
2013-1-22,29.6,25.4,19.5,27.7,17.0,7.2,93,71,51,30.07,29.73,28,6,28,0.00
2013-1-23,19.5,15.7,13.4,10.2,3.3,-0.5,67,57,51,30.16,30.06,34,8,39,0.00
2013-1-24,20.3,15.9,11.0,8.2,4.4,1.1,72,60,46,30.20,30.05,35,8,35,0.00
2013-1-25,25.6,20.6,14.6,15.9,9.4,3.4,72,62,50,30.32,30.07,34,5,34,0.00
2013-1-26,26.5,23.2,19.5,22.7,16.1,6.3,89,75,52,30.20,29.99,24,4,24,0.00
2013-1-27,28.7,23.9,18.6,15.2,11.8,9.0,71,60,48,30.48,30.20,30,6,30,0.00
2013-1-28,33.4,27.2,17.7,32.1,18.9,10.2,95,72,47,30.48,30.04,13,2,13,0.05
2013-1-29,39.7,36.2,33.0,38.5,34.9,31.6,97,95,92,30.25,30.02,9,1,11,0.34
2013-1-30,56.6,49.1,38.7,55.6,47.8,37.3,98,95,90,30.20,29.60,25,5,25,0.09
2013-1-31,58.8,48.3,33.4,57.3,43.2,21.0,96,83,58,29.63,29.11,33,6,38,0.45
2013-2-1,34.2,30.9,26.0,21.8,16.5,10.7,66,55,45,30.10,29.63,20,4,20,0.00
2013-2-2,31.4,27.4,23.5,25.4,15.4,8.9,86,61,44,30.29,30.09,20,3,20,0.00
2013-2-3,34.6,30.1,25.3,31.1,26.7,22.8,94,87,77,30.09,29.67,16,2,19,0.06
2013-2-4,30.9,28.0,25.4,27.4,18.0,12.9,90,67,52,29.97,29.70,31,9,31,0.03
2013-2-5,32.2,27.6,25.2,30.4,20.4,12.9,94,75,59,30.08,29.94,23,3,23,0.00
2013-2-6,37.6,33.8,30.2,32.7,28.4,18.3,96,81,59,30.29,29.92,23,3,23,0.04
2013-2-7,30.2,27.0,23.5,23.7,17.2,11.4,83,66,51,30.55,30.29,18,3,18,0.00
2013-2-8,36.0,32.9,29.5,33.1,29.1,23.1,96,86,77,30.53,29.47,46,8,46,0.43
2013-2-9,32.3,23.1,21.7,31.3,21.4,20.1,96,93,91,30.11,29.29,51,9,51,0.02
2013-2-10,31.5,25.6,21.8,27.2,23.0,19.3,95,90,82,30.42,30.11,16,1,17,0.04
2013-2-11,44.9,35.2,22.1,44.2,34.3,20.6,98,96,93,30.41,29.64,24,2,24,1.18
2013-2-12,41.9,38.2,35.1,39.7,34.4,31.0,98,86,74,29.91,29.62,14,3,16,0.08
2013-2-13,41.1,34.6,28.8,33.6,29.3,25.8,92,81,63,29.92,29.70,12,2,12,0.00
2013-2-14,40.2,34.1,27.9,35.1,30.2,25.3,97,86,65,30.07,29.72,14,2,14,0.25
2013-2-15,47.0,38.6,30.7,40.0,34.6,27.8,94,86,70,30.09,29.98,20,3,20,0.02
2013-2-16,41.4,36.7,30.6,36.9,34.2,29.3,97,90,81,29.99,29.67,25,3,25,0.00
2013-2-17,35.8,26.6,21.3,32.6,23.0,12.4,95,87,67,29.66,29.27,31,8,32,0.00
2013-2-18,31.9,25.6,19.9,16.8,13.6,11.4,73,61,47,30.18,29.63,31,7,32,0.06
2013-2-19,46.2,38.4,27.6,44.4,30.9,14.3,96,75,56,30.20,29.63,18,3,19,0.90
2013-2-20,42.5,34.8,28.5,41.2,27.2,16.2,96,75,55,29.81,29.57,21,4,21,0.03
2013-2-21,36.2,30.2,28.0,29.7,20.5,16.8,81,67,54,30.11,29.80,21,5,23,0.00
2013-2-22,38.2,36.1,34.4,30.2,28.3,26.2,79,73,66,30.40,30.11,21,3,21,0.00
2013-2-23,39.9,36.6,30.3,38.0,32.2,27.9,95,84,73,30.39,29.92,13,2,14,0.25
2013-2-24,42.9,39.3,33.8,42.1,38.3,32.8,97,96,95,29.92,29.60,25,5,29,1.69
2013-2-25,41.1,34.7,26.1,33.6,29.5,23.6,97,82,59,30.29,29.87,16,2,19,0.09
2013-2-26,44.9,35.0,23.9,36.0,28.8,22.5,97,79,52,30.39,30.19,15,2,15,0.00
2013-2-27,45.3,42.9,40.4,44.5,41.4,35.1,97,94,81,30.20,29.59,27,5,27,0.69
2013-2-28,43.3,39.5,36.5,40.9,38.2,35.1,98,95,87,29.69,29.53,10,1,11,0.00
2013-3-1,39.9,37.4,34.5,37.8,34.5,32.4,97,89,81,29.70,29.53,15,2,15,0.04
2013-3-2,46.5,38.2,32.6,39.1,34.0,31.1,96,85,69,29.70,29.65,12,2,12,0.02
2013-3-3,44.0,38.2,35.3,36.3,34.2,32.1,94,85,69,29.66,29.60,16,3,17,0.00
2013-3-4,41.9,35.9,33.2,33.2,29.9,27.3,94,79,60,29.71,29.59,25,7,26,0.01
2013-3-5,44.2,38.2,33.5,39.9,34.4,28.3,94,86,79,30.08,29.71,21,5,21,0.04
2013-3-6,41.1,38.8,36.6,37.1,35.4,33.8,95,88,79,30.12,29.99,35,8,36,0.05
2013-3-7,38.2,36.9,35.6,36.0,35.2,34.3,95,94,88,29.98,29.87,39,12,43,1.01
2013-3-8,41.1,36.8,34.6,36.0,34.3,32.6,96,91,72,30.08,29.85,39,9,39,0.93
2013-3-9,39.4,37.4,36.1,34.4,32.8,31.6,87,83,78,30.35,30.08,30,6,30,0.00
2013-3-10,41.7,38.5,35.2,35.2,33.1,31.5,88,81,74,30.43,30.34,15,3,15,0.00
2013-3-11,51.0,41.8,35.2,42.8,37.5,31.7,92,85,71,30.38,30.24,15,3,16,0.00
2013-3-12,54.8,49.9,43.0,53.0,47.2,40.7,97,91,82,30.25,29.80,26,7,28,0.26
2013-3-13,54.1,46.4,39.3,53.2,40.2,27.6,97,80,58,29.82,29.73,21,5,23,0.52
2013-3-14,42.2,35.7,27.3,32.2,24.8,14.9,88,65,49,29.83,29.73,26,6,28,0.00
2013-3-15,41.2,31.8,23.5,30.7,19.1,11.4,77,60,38,29.89,29.70,26,7,27,0.00
2013-3-16,40.7,34.8,29.1,30.3,21.9,17.9,77,60,41,29.91,29.70,31,4,31,0.00
2013-3-17,39.8,32.9,24.1,29.2,19.9,12.2,93,61,38,30.34,29.90,20,3,23,0.00
2013-3-18,36.8,30.6,24.3,27.9,17.4,9.9,91,58,45,30.49,30.31,13,3,13,0.00
2013-3-19,42.4,36.4,30.2,41.6,35.2,27.9,97,95,91,30.31,29.51,39,8,39,0.84
2013-3-20,42.3,35.0,29.4,30.7,27.2,23.4,94,74,52,29.87,29.64,27,7,34,0.00
2013-3-21,42.3,35.3,28.7,32.2,29.9,26.2,94,81,58,29.87,29.59,23,4,23,0.01
2013-3-22,40.2,34.2,30.2,34.2,30.3,26.2,96,86,69,29.77,29.59,24,3,26,0.46
2013-3-23,45.3,37.5,31.0,30.1,26.3,23.4,79,64,49,29.79,29.66,28,8,28,0.02
2013-3-24,50.3,38.2,28.4,32.1,27.7,25.0,88,67,46,29.86,29.78,23,5,25,0.00
2013-3-25,47.2,37.7,28.0,36.2,30.8,25.1,97,77,55,29.80,29.48,28,6,30,0.00
2013-3-26,49.6,40.5,35.0,34.2,30.2,25.4,86,68,42,29.79,29.48,25,6,29,0.01
2013-3-27,55.8,43.0,31.5,36.8,32.1,27.8,90,68,36,29.87,29.78,17,4,21,0.00
2013-3-28,48.6,42.1,38.1,39.9,35.8,30.6,94,79,55,30.05,29.86,19,4,19,0.08
2013-3-29,56.8,45.5,33.4,41.1,37.3,31.2,96,74,51,30.07,30.02,14,2,14,0.00
2013-3-30,58.2,45.1,37.6,39.5,35.6,30.7,90,71,42,30.14,30.06,12,2,14,0.00
2013-3-31,60.7,45.3,29.4,41.5,35.1,27.6,97,71,34,30.17,29.84,22,3,24,0.04
2013-4-1,59.6,48.9,39.1,49.9,43.0,22.9,97,81,51,29.84,29.60,28,8,28,0.20
2013-4-2,45.2,38.3,32.9,24.5,19.9,15.2,59,48,37,30.00,29.80,34,8,34,0.00
2013-4-3,49.2,39.5,33.0,26.4,20.9,17.8,62,48,32,30.17,29.98,29,9,32,0.00
2013-4-4,53.3,41.2,33.5,34.2,25.2,18.9,79,54,32,30.33,30.14,24,7,26,0.00
2013-4-5,50.4,43.8,40.2,44.3,38.2,27.6,92,81,57,30.14,29.69,23,4,23,0.04
2013-4-6,44.9,38.1,32.9,30.0,20.6,11.5,76,51,28,30.40,29.88,32,5,32,0.00
2013-4-7,55.7,42.1,26.4,42.9,31.1,23.1,96,68,33,30.40,30.10,24,5,28,0.00
2013-4-8,64.1,51.0,43.4,48.2,42.1,36.3,92,73,44,30.18,30.02,22,4,23,0.00
2013-4-9,69.0,51.3,41.4,55.3,45.3,36.6,96,81,57,30.16,29.90,18,4,23,0.10
2013-4-10,54.4,47.4,42.5,47.5,43.4,40.6,96,86,71,30.06,29.92,15,3,15,0.25
2013-4-11,51.0,45.0,42.8,44.7,41.4,37.3,97,88,71,30.19,29.84,18,3,18,0.03
2013-4-12,43.4,41.6,37.6,42.1,37.0,31.8,97,84,66,30.21,29.68,29,6,29,0.75
2013-4-13,46.2,41.2,36.6,41.7,38.7,34.6,97,91,78,30.00,29.69,29,4,29,0.06
2013-4-14,56.1,45.8,39.1,46.6,38.3,32.3,97,77,51,30.23,29.97,14,3,15,0.00
2013-4-15,53.6,44.6,35.1,40.9,37.3,32.3,94,77,55,30.48,30.23,14,3,14,0.00
2013-4-16,64.3,49.3,35.0,48.0,41.8,33.6,98,77,48,30.48,30.16,25,5,25,0.00
2013-4-17,62.9,52.5,40.3,50.0,42.5,33.2,95,72,41,30.38,30.12,21,4,22,0.03
2013-4-18,59.6,47.8,36.9,45.9,37.9,33.8,92,71,43,30.48,30.23,20,4,20,0.00
2013-4-19,70.7,61.3,50.1,62.7,57.6,46.1,95,88,75,30.23,29.81,42,8,42,0.00
2013-4-20,64.7,53.7,43.1,62.6,50.2,36.8,96,88,73,30.22,29.73,41,6,41,0.25
2013-4-21,49.9,42.5,32.6,36.9,29.4,25.5,83,60,44,30.72,30.22,20,4,20,0.00
2013-4-22,53.6,42.4,31.4,40.8,33.9,27.3,93,73,48,30.79,30.61,24,5,24,0.00
2013-4-23,44.7,43.3,41.4,43.4,41.4,35.9,97,93,80,30.61,30.02,25,7,25,0.90
2013-4-24,58.2,48.1,43.4,53.1,46.0,42.6,97,93,80,30.02,29.83,27,6,30,0.38
2013-4-25,60.6,52.4,41.9,52.7,45.6,37.8,96,79,46,30.29,29.94,26,4,26,0.01
2013-4-26,56.9,47.1,38.0,44.4,41.2,36.4,97,81,58,30.47,30.29,19,3,19,0.00
2013-4-27,60.8,48.8,35.4,45.9,37.2,32.6,98,68,36,30.47,30.38,12,2,14,0.00
2013-4-28,66.0,51.9,36.7,48.7,40.1,34.3,97,68,36,30.41,30.32,12,2,12,0.00
2013-4-29,70.4,53.9,41.0,49.9,40.9,29.3,97,67,22,30.35,30.29,14,2,14,0.00
2013-4-30,66.5,50.5,36.3,44.5,34.8,25.7,97,62,24,30.42,30.31,13,2,14,0.00
2013-5-1,60.2,49.4,40.0,49.1,44.0,37.8,97,82,63,30.53,30.41,14,2,14,0.00
2013-5-2,72.5,50.8,37.8,53.0,42.0,34.8,98,77,27,30.51,30.44,19,3,20,0.00
2013-5-3,53.1,45.8,38.0,45.7,41.5,35.9,97,85,74,30.53,30.41,24,5,25,0.00
2013-5-4,55.3,47.4,41.4,43.5,41.1,39.3,96,80,60,30.41,30.35,25,6,25,0.00
2013-5-5,57.1,48.0,38.1,45.7,42.1,35.7,92,81,64,30.36,30.32,18,4,18,0.00
2013-5-6,58.2,47.9,37.6,48.1,44.1,35.3,96,87,68,30.34,30.23,14,2,14,0.00
2013-5-7,76.8,59.2,47.8,61.1,53.2,46.4,97,82,56,30.25,30.18,16,2,18,0.00
2013-5-8,73.6,59.8,52.6,62.9,55.9,50.9,98,88,67,30.27,30.11,17,4,21,0.21
2013-5-9,73.3,60.7,53.8,66.0,57.4,52.8,98,90,71,30.11,29.94,14,3,14,0.03
2013-5-10,72.7,61.5,54.4,61.2,55.9,53.0,98,83,60,30.01,29.93,12,3,14,0.00
2013-5-11,67.2,61.3,57.0,62.0,58.4,54.2,97,90,76,30.00,29.78,22,5,23,0.46
2013-5-12,63.4,59.7,53.3,61.7,56.2,39.8,98,89,59,29.84,29.64,19,5,19,0.20
2013-5-13,65.2,54.9,48.4,43.3,39.1,34.2,75,56,36,30.04,29.84,21,5,22,0.00
2013-5-14,58.1,52.2,47.9,43.1,38.4,33.6,75,60,44,30.07,30.00,22,4,22,0.00
2013-5-15,70.2,56.8,48.5,55.7,44.5,35.9,90,65,35,30.11,29.74,20,4,21,0.03
2013-5-16,81.0,64.3,53.8,55.8,52.2,48.1,94,68,36,29.81,29.69,14,2,14,0.00
2013-5-17,67.3,57.7,48.3,51.5,44.7,41.1,88,64,42,30.26,29.81,20,2,20,0.00
2013-5-18,73.5,58.2,47.2,53.5,49.4,43.8,94,74,38,30.36,30.26,13,2,13,0.00
2013-5-19,77.3,62.8,54.0,54.6,51.4,48.0,91,69,41,30.40,30.30,14,2,16,0.05
2013-5-20,77.3,65.2,56.4,67.8,61.1,54.5,97,88,69,30.30,29.98,14,2,14,0.47
2013-5-21,81.8,62.7,54.1,69.7,59.0,52.6,98,89,61,30.02,29.91,19,2,19,0.01
2013-5-22,66.1,57.6,51.8,60.4,55.1,50.7,98,92,76,30.01,29.93,15,2,15,0.00
2013-5-23,74.6,66.6,60.8,67.6,63.9,59.9,97,91,76,29.99,29.92,24,4,24,0.21
2013-5-24,66.0,63.4,54.8,65.1,62.6,53.9,98,97,94,29.92,29.74,23,3,26,1.41
2013-5-25,58.4,52.4,46.6,55.0,50.8,44.1,99,95,84,29.77,29.70,19,3,19,0.11
2013-5-26,57.7,49.5,43.1,49.6,44.0,40.8,93,82,67,30.11,29.74,19,4,19,0.02
2013-5-27,72.8,58.9,49.1,52.6,46.0,38.3,85,65,32,30.21,30.11,14,2,15,0.01
2013-5-28,73.4,60.5,46.2,57.0,50.1,44.1,96,71,39,30.29,30.21,11,1,12,0.00
2013-5-29,65.3,60.3,57.2,62.9,58.6,55.2,98,94,89,30.27,30.05,16,2,16,0.57
2013-5-30,89.3,71.3,60.6,72.8,65.1,59.4,98,83,55,30.12,30.06,10,2,12,0.07
2013-5-31,94.7,75.0,62.7,70.2,64.3,60.4,95,72,41,30.13,30.00,15,2,15,0.00
2013-6-1,90.6,74.2,64.8,71.4,65.2,61.6,90,75,51,30.04,29.95,18,3,18,0.00
2013-6-2,83.6,71.5,65.4,68.8,64.8,62.3,92,81,59,29.98,29.86,21,4,21,0.01
2013-6-3,67.1,65.2,63.4,66.2,64.2,62.8,98,97,93,29.90,29.83,20,3,20,2.59
2013-6-4,72.0,62.1,50.6,63.1,50.9,44.7,98,69,42,30.11,29.83,16,2,16,0.00
2013-6-5,73.2,60.0,47.3,54.8,48.9,44.4,97,70,39,30.23,30.11,12,1,12,0.00
2013-6-6,76.9,62.6,54.7,57.7,52.7,48.8,90,72,43,30.25,30.14,8,1,8,0.00
2013-6-7,66.8,57.0,55.1,66.3,55.3,51.9,99,94,84,30.15,29.80,18,2,19,1.23
2013-6-8,73.3,65.5,58.2,67.8,63.3,57.3,99,93,75,30.03,29.60,19,3,21,0.34
2013-6-9,80.9,68.9,58.3,64.6,60.3,56.6,98,76,46,30.19,30.03,10,1,11,0.00
2013-6-10,70.8,62.0,57.2,60.4,57.8,56.1,96,86,66,30.24,30.06,11,1,11,0.34
2013-6-11,71.3,61.4,54.6,69.2,59.9,53.5,99,95,79,30.06,29.57,16,2,16,1.32
2013-6-12,69.8,61.0,54.2,63.6,57.2,53.1,98,88,69,29.82,29.59,25,3,25,0.02
2013-6-13,64.5,58.5,54.4,57.2,54.4,52.4,96,87,69,29.85,29.67,16,1,16,0.09
2013-6-14,61.7,55.7,52.1,56.5,53.2,51.0,97,91,80,29.79,29.60,24,4,24,0.90
2013-6-15,76.7,64.3,51.7,56.6,51.1,42.3,98,67,32,29.99,29.77,14,1,14,0.00
2013-6-16,81.5,67.4,58.2,62.6,59.1,54.3,95,77,44,29.99,29.79,20,2,20,0.00
2013-6-17,86.6,71.8,63.0,69.4,63.6,59.6,92,77,53,29.95,29.81,16,2,16,0.00
2013-6-18,78.2,65.9,60.0,66.0,61.2,58.3,96,86,63,29.98,29.90,15,2,15,0.03
2013-6-19,70.7,62.3,54.6,59.1,54.5,48.6,95,77,57,30.19,29.89,20,3,20,0.02
2013-6-20,81.6,66.8,53.2,59.5,54.7,50.7,96,68,37,30.32,30.19,16,2,16,0.00
2013-6-21,82.5,70.3,61.1,62.2,56.9,52.4,78,63,48,30.32,30.26,14,3,15,0.00
2013-6-22,82.5,71.2,64.1,64.0,59.9,54.3,91,69,44,30.29,30.20,13,3,14,0.00
2013-6-23,85.7,74.2,65.7,69.7,66.7,63.0,93,79,57,30.22,30.08,15,3,16,0.00
2013-6-24,92.4,78.2,69.4,76.3,70.5,65.6,95,79,58,30.08,29.91,17,2,17,0.00
2013-6-25,92.1,77.7,69.0,72.3,68.8,65.3,90,76,50,29.94,29.78,16,2,16,0.00
2013-6-26,89.3,76.2,66.7,73.2,68.9,64.6,94,80,53,29.88,29.76,11,2,11,0.01
2013-6-27,72.8,66.8,63.2,67.1,64.1,61.9,97,91,79,29.90,29.80,10,1,10,0.00
2013-6-28,72.0,69.7,65.4,71.4,68.8,63.9,98,97,94,29.80,29.60,23,3,24,0.39
2013-6-29,73.9,70.5,68.0,72.5,69.6,67.2,99,97,92,29.80,29.60,17,3,18,1.10
2013-6-30,76.4,71.5,68.6,72.5,69.6,67.7,98,94,84,30.02,29.80,15,2,15,0.05
2013-7-1,77.8,71.9,69.2,75.0,70.7,68.3,99,96,88,30.16,30.01,11,2,18,0.35
2013-7-2,84.7,75.1,70.4,77.1,72.1,69.2,98,91,76,30.25,30.15,13,3,14,0.00
2013-7-3,88.6,77.2,70.7,75.7,72.1,69.3,97,85,63,30.26,30.20,13,3,15,0.00
2013-7-4,92.3,79.5,72.2,79.2,73.6,70.7,96,83,62,30.25,30.15,15,3,15,0.00
2013-7-5,95.9,80.8,72.4,79.8,73.2,69.2,95,79,57,30.20,30.09,13,2,16,0.00
2013-7-6,95.3,81.7,72.7,78.8,74.2,70.2,93,79,56,30.12,30.00,8,2,9,0.00
2013-7-7,93.5,80.9,72.0,75.2,71.9,68.3,93,76,52,30.05,29.95,10,2,10,0.00
2013-7-8,92.0,78.8,69.1,75.8,71.7,67.1,95,81,54,30.08,29.96,11,2,12,0.00
2013-7-9,74.5,70.2,67.7,70.7,67.5,65.3,97,91,84,30.13,30.06,7,1,7,0.00
2013-7-10,85.2,75.9,69.0,75.8,72.1,67.2,98,88,70,30.11,29.87,18,2,18,0.00
2013-7-11,77.5,74.8,72.2,74.6,72.6,70.7,95,93,88,29.94,29.84,13,2,18,0.07
2013-7-12,72.2,68.7,65.7,71.1,66.3,62.5,98,92,80,30.22,29.94,16,2,17,0.00
2013-7-13,81.8,70.1,65.8,73.0,67.6,64.9,98,92,73,30.34,30.21,9,1,9,0.01
2013-7-14,90.8,78.1,70.4,76.6,72.8,69.2,97,85,60,30.33,30.23,9,1,9,0.00
2013-7-15,91.8,79.7,70.6,77.9,72.0,68.0,98,79,52,30.23,30.13,7,1,9,0.00
2013-7-16,89.8,77.7,68.9,72.2,69.0,65.3,93,76,53,30.20,30.10,14,1,14,0.00
2013-7-17,90.8,77.7,67.1,72.4,68.5,64.7,95,75,46,30.22,30.07,11,1,11,0.00
2013-7-18,88.7,79.1,74.2,75.9,71.5,69.3,89,78,58,30.07,29.99,17,2,17,0.00
2013-7-19,97.3,83.5,74.9,80.9,76.2,71.1,94,80,57,29.99,29.79,23,6,23,0.00
2013-7-20,93.7,82.7,76.4,78.9,75.6,73.2,92,80,56,29.82,29.70,21,6,23,0.01
2013-7-21,79.0,73.0,67.0,73.5,67.8,64.8,93,84,68,30.04,29.82,13,2,14,0.01
2013-7-22,79.2,70.9,65.5,70.2,67.3,63.6,97,89,73,30.05,29.92,10,2,13,0.00
2013-7-23,90.1,77.1,68.9,77.7,72.6,67.7,97,87,65,29.92,29.59,23,3,23,0.00
2013-7-24,92.5,79.6,68.6,76.0,71.9,66.2,95,79,49,29.92,29.61,14,2,14,0.13
2013-7-25,69.3,65.6,64.2,67.4,61.4,58.0,96,86,79,30.08,29.92,25,6,27,0.12
2013-7-26,66.0,65.1,64.1,65.4,64.4,63.1,98,98,96,30.04,29.88,25,5,25,1.55
2013-7-27,85.3,72.0,64.1,74.2,67.7,63.5,99,88,61,30.10,30.04,15,3,16,0.01
2013-7-28,79.2,71.6,66.7,75.0,69.3,65.0,99,93,81,30.08,29.98,10,2,10,0.13
2013-7-29,84.6,74.3,66.2,74.9,70.4,65.3,99,89,69,30.08,30.02,12,2,14,0.00
2013-7-30,83.1,72.8,66.3,70.6,65.8,60.0,96,80,49,30.12,30.04,13,2,13,0.00
2013-7-31,84.5,72.4,63.5,68.3,63.5,59.5,97,76,47,30.15,30.09,9,2,9,0.00
2013-8-1,84.0,72.8,64.0,69.6,65.4,61.3,97,79,49,30.10,29.94,13,2,17,0.13
2013-8-2,82.0,71.7,65.4,73.6,67.7,64.2,98,88,66,29.94,29.83,16,3,19,0.09
2013-8-3,75.1,71.6,69.7,69.3,67.6,66.3,92,87,80,29.92,29.83,20,5,22,0.01
2013-8-4,82.7,70.3,59.1,67.3,62.3,57.4,97,77,49,29.89,29.81,20,2,21,0.13
2013-8-5,75.6,65.4,57.4,60.5,55.8,48.0,97,74,41,30.07,29.88,21,3,21,0.01
2013-8-6,78.2,64.3,52.6,58.9,55.1,50.6,98,75,47,30.21,30.07,8,2,13,0.00
2013-8-7,80.2,65.9,54.6,64.2,56.5,51.1,98,75,43,30.24,30.18,11,2,11,0.00
2013-8-8,86.6,71.5,59.3,72.8,65.9,56.1,95,83,58,30.19,30.08,17,4,19,0.00
2013-8-9,76.5,73.1,68.0,73.3,71.0,66.2,98,93,87,30.11,29.82,26,6,29,0.66
2013-8-10,85.7,74.6,64.9,71.6,68.3,61.6,98,82,52,30.02,29.82,20,4,20,0.01
2013-8-11,81.7,68.5,57.7,62.0,58.3,52.4,96,73,38,30.11,30.02,11,2,12,0.00
2013-8-12,83.3,72.3,64.6,70.3,66.6,61.9,96,83,61,30.07,29.97,17,3,17,0.00
2013-8-13,74.3,69.2,64.8,69.8,67.1,63.2,97,93,84,29.97,29.70,10,1,10,0.02
2013-8-14,79.7,70.0,64.9,66.0,60.6,55.1,97,74,48,29.96,29.69,20,4,22,0.01
2013-8-15,80.8,68.5,59.4,60.0,55.3,49.8,86,65,35,30.16,29.96,17,3,20,0.00
2013-8-16,83.8,70.8,60.1,62.1,58.8,53.2,91,68,39,30.24,30.14,17,3,17,0.00
2013-8-17,77.2,68.5,61.8,64.7,61.4,58.1,92,79,60,30.31,30.23,11,2,12,0.00
2013-8-18,78.5,67.3,59.8,67.4,61.7,57.9,98,83,59,30.31,30.12,8,1,8,0.07
2013-8-19,82.2,69.6,57.9,68.4,63.4,56.5,97,82,57,30.12,29.98,12,3,12,0.00
2013-8-20,85.6,74.5,66.2,69.5,65.9,60.2,93,76,46,30.13,30.01,10,2,10,0.00
2013-8-21,90.3,75.1,64.8,70.2,66.9,62.6,96,78,47,30.18,30.07,14,2,15,0.00
2013-8-22,84.3,75.4,69.2,74.3,70.3,67.0,94,84,70,30.08,29.87,21,5,21,0.00
2013-8-23,73.7,69.9,61.9,69.8,63.7,58.6,94,81,66,30.12,29.84,27,4,27,0.00
2013-8-24,72.8,64.2,52.4,60.4,55.3,49.3,90,74,47,30.36,30.12,22,4,25,0.00
2013-8-25,81.1,66.8,51.7,64.2,57.0,48.6,95,73,37,30.39,30.25,15,2,15,0.00
2013-8-26,80.6,71.8,67.4,67.8,64.9,60.3,89,79,62,30.25,29.93,21,6,21,0.00
2013-8-27,72.5,69.5,66.1,70.7,67.6,64.8,97,94,89,29.93,29.87,9,2,10,0.06
2013-8-28,69.0,65.9,63.9,66.3,64.5,63.0,98,95,90,29.98,29.89,11,2,11,0.00
2013-8-29,67.7,64.4,61.2,65.4,62.1,57.8,97,93,85,30.07,29.97,18,5,19,0.01
2013-8-30,77.5,67.6,60.4,67.7,63.4,58.1,95,87,71,30.04,29.89,15,3,15,0.00
2013-8-31,78.6,72.1,68.6,72.6,69.4,66.8,96,91,80,29.90,29.86,18,5,18,0.00
2013-9-1,79.5,73.0,69.0,74.9,71.0,67.3,97,93,85,29.94,29.86,18,4,20,0.04
2013-9-2,85.8,75.1,69.1,74.9,71.6,68.0,98,90,68,29.93,29.77,18,3,18,0.00
2013-9-3,84.7,73.4,66.8,74.6,70.3,65.0,98,90,71,29.84,29.73,17,3,17,1.90
2013-9-4,80.3,68.9,61.9,67.4,63.9,60.6,98,85,60,29.96,29.82,16,4,18,0.03
2013-9-5,70.0,63.0,51.7,66.2,59.7,50.0,97,89,78,30.15,29.91,17,2,19,0.08
2013-9-6,69.1,57.5,50.6,51.8,49.6,45.5,97,77,46,30.26,30.14,13,2,13,0.00
2013-9-7,76.9,65.1,53.2,60.9,56.1,49.4,88,73,52,30.14,29.91,19,5,19,0.00
2013-9-8,76.3,65.9,58.0,64.9,57.9,44.5,90,76,59,30.10,29.77,18,4,20,0.00
2013-9-9,69.1,59.6,49.1,54.9,47.8,41.9,89,66,42,30.27,30.10,15,3,16,0.00
2013-9-10,73.0,66.5,59.3,65.8,60.8,54.6,90,82,69,30.23,30.10,22,5,22,0.00
2013-9-11,88.0,74.7,68.9,76.3,70.3,65.8,95,87,67,30.15,30.02,19,5,19,0.00
2013-9-12,83.0,73.6,69.7,73.7,69.9,68.0,95,88,72,30.04,29.75,22,6,22,0.00
2013-9-13,73.0,69.8,62.8,70.3,67.5,60.1,97,93,86,29.75,29.61,22,2,22,0.12
2013-9-14,72.0,63.3,57.1,61.7,58.2,52.8,93,84,65,30.07,29.75,12,2,12,0.00
2013-9-15,72.3,60.3,50.3,57.7,53.4,48.7,98,79,57,30.19,30.07,17,3,17,0.00
2013-9-16,64.1,60.9,52.8,60.2,56.6,50.2,92,86,73,30.22,30.05,22,3,22,0.06
2013-9-17,57.7,52.2,43.4,50.2,43.7,40.2,92,73,57,30.42,30.21,24,5,24,0.01
2013-9-18,70.7,56.1,42.6,55.3,48.1,40.7,98,77,40,30.36,30.18,15,2,15,0.00
2013-9-19,74.6,62.1,55.3,58.9,55.6,51.5,92,80,47,30.18,30.08,16,2,16,0.00
2013-9-20,76.9,63.8,56.6,63.2,57.9,54.3,97,82,51,30.13,30.05,9,2,10,0.00
2013-9-21,77.8,65.1,55.0,65.5,60.3,53.6,98,85,61,30.09,29.83,21,3,22,0.00
2013-9-22,70.5,66.1,56.8,67.3,62.5,49.3,96,88,75,29.83,29.70,22,3,26,0.10
2013-9-23,60.7,54.7,49.7,50.3,46.4,44.1,83,74,60,30.01,29.82,17,4,19,0.00
2013-9-24,61.4,52.7,45.9,48.6,46.0,42.8,92,79,57,30.00,29.86,22,3,22,0.00
2013-9-25,61.4,53.4,45.0,51.5,48.1,42.8,97,83,64,30.00,29.90,15,2,15,0.00
2013-9-26,60.5,55.6,49.5,51.9,49.9,46.8,95,82,69,30.13,29.99,17,3,17,0.00
2013-9-27,62.3,57.7,48.3,55.4,52.9,46.1,94,84,77,30.28,30.12,18,4,19,0.01
2013-9-28,67.2,55.3,46.0,58.6,51.3,44.4,98,87,68,30.34,30.27,15,2,15,0.00
2013-9-29,63.9,55.1,44.9,57.1,51.7,43.1,97,89,76,30.30,30.13,14,2,14,0.00
2013-9-30,63.7,58.6,55.0,58.2,55.9,52.8,97,91,80,30.13,29.98,15,3,15,0.00
2013-10-1,69.3,59.7,53.3,56.9,52.8,48.6,97,80,52,29.98,29.89,15,2,15,0.00
2013-10-2,77.2,65.3,57.2,64.7,59.9,55.8,97,84,63,29.97,29.85,14,3,14,0.00
2013-10-3,75.0,64.0,55.6,59.9,56.1,48.9,96,77,41,30.11,29.97,12,2,12,0.00
2013-10-4,70.6,59.2,53.0,62.3,56.7,51.0,97,92,72,30.11,30.06,8,1,8,0.24
2013-10-5,65.3,60.7,57.5,61.2,58.6,55.9,98,93,83,30.16,30.08,10,2,10,0.00
2013-10-6,60.9,58.6,56.6,59.1,56.9,53.8,97,94,87,30.25,30.14,14,3,15,0.04
2013-10-7,74.6,67.6,60.8,69.8,65.0,58.6,97,91,81,30.17,29.90,22,5,24,0.00
2013-10-8,67.4,57.5,49.8,64.9,51.9,46.4,95,82,61,30.38,29.91,19,3,20,0.11
2013-10-9,60.2,55.9,52.3,48.9,46.5,43.8,84,71,64,30.47,30.38,23,5,24,0.00
2013-10-10,62.3,57.8,53.5,56.9,54.1,47.0,95,88,78,30.38,30.17,16,4,16,0.00
2013-10-11,62.9,58.7,54.2,58.6,56.2,51.3,96,91,85,30.17,30.12,20,5,20,0.00
2013-10-12,61.2,57.7,54.0,57.9,54.2,49.1,94,88,83,30.40,30.15,24,6,24,0.00
2013-10-13,59.3,53.5,41.8,49.8,46.8,39.4,91,79,65,30.46,30.38,18,4,18,0.00
2013-10-14,58.7,47.7,37.5,49.6,43.7,35.8,98,87,68,30.43,30.31,11,1,13,0.00
2013-10-15,61.1,51.9,42.4,54.3,48.4,41.1,98,89,65,30.31,30.21,11,1,11,0.00
2013-10-16,59.9,56.7,50.4,58.7,55.4,48.6,97,96,91,30.21,29.94,15,3,15,0.02
2013-10-17,68.3,60.5,56.0,62.7,58.5,55.1,98,93,81,29.94,29.79,14,3,14,0.00
2013-10-18,66.9,61.7,54.7,62.0,56.7,50.0,97,84,61,29.94,29.68,16,4,16,0.03
2013-10-19,63.2,56.1,49.4,52.5,48.1,43.4,91,75,52,30.03,29.80,12,2,14,0.00
2013-10-20,60.7,55.3,44.7,56.3,47.5,38.8,96,76,52,30.05,29.74,23,4,26,0.01
2013-10-21,63.0,52.8,43.6,48.4,44.3,39.8,93,74,48,30.16,30.05,11,2,11,0.00
2013-10-22,66.1,57.3,48.0,56.5,52.3,43.8,97,84,69,30.07,29.74,16,3,16,0.00
2013-10-23,53.4,47.5,40.1,45.1,41.3,36.6,95,80,62,29.82,29.62,8,1,9,0.16
2013-10-24,51.7,47.7,43.3,43.9,37.8,30.5,96,70,50,29.92,29.65,22,6,22,0.01
2013-10-25,49.9,46.5,42.3,39.3,35.4,31.0,82,65,57,30.19,29.92,22,4,22,0.00
2013-10-26,55.9,47.3,37.4,45.4,38.4,31.3,84,72,56,30.20,29.93,27,5,27,0.00
2013-10-27,55.4,51.6,46.5,45.7,39.9,33.9,86,65,53,30.09,29.86,21,5,23,0.02
2013-10-28,56.9,49.8,40.6,44.3,38.2,32.4,82,65,51,30.36,30.09,19,4,19,0.00
2013-10-29,48.7,42.3,32.2,38.9,34.7,29.0,91,75,59,30.44,30.35,10,2,15,0.00
2013-10-30,49.5,41.6,31.2,47.0,39.3,28.9,96,92,75,30.41,30.24,11,1,11,0.09
2013-10-31,63.6,54.0,38.9,59.7,50.9,37.6,98,90,75,30.29,29.92,29,4,29,0.00
2013-11-1,67.8,62.9,58.8,64.6,60.5,55.9,96,92,87,29.92,29.57,39,9,39,0.09
2013-11-2,60.1,56.0,51.2,56.4,53.3,49.2,96,91,80,29.75,29.63,12,1,12,0.02
2013-11-3,53.8,46.4,41.6,51.6,40.2,29.8,95,79,61,30.38,29.72,27,6,27,0.01
2013-11-4,42.1,39.9,38.1,31.3,28.6,26.0,73,64,56,30.72,30.38,22,4,22,0.00
2013-11-5,48.4,40.8,33.9,37.7,34.2,31.1,93,78,60,30.73,30.57,9,1,9,0.00
2013-11-6,55.7,48.0,36.6,52.0,44.4,34.8,95,88,70,30.58,30.13,17,3,17,0.00
2013-11-7,62.6,55.5,44.3,60.7,53.8,39.1,97,94,81,30.13,29.71,28,5,28,0.19
2013-11-8,48.1,43.5,39.8,39.6,33.8,26.6,85,69,56,30.10,29.82,31,6,31,0.08
2013-11-9,45.1,41.8,38.5,36.7,30.0,27.1,81,63,52,30.22,30.10,22,6,24,0.04
2013-11-10,54.1,47.9,40.6,50.6,42.9,35.3,96,83,73,30.12,29.76,25,4,25,0.05
2013-11-11,51.2,46.0,42.3,46.2,36.6,31.9,83,70,58,30.11,29.87,26,7,27,0.03
2013-11-12,51.6,38.8,31.6,46.3,34.0,24.4,94,83,65,30.19,29.91,22,4,22,0.03
2013-11-13,35.9,33.1,29.9,27.0,24.0,20.7,80,69,57,30.28,30.18,19,5,19,0.02
2013-11-14,47.7,42.4,34.2,39.0,32.0,23.1,79,67,49,30.23,30.09,25,5,29,0.32
2013-11-15,55.3,48.3,42.7,46.7,41.2,34.5,94,77,58,30.26,30.18,19,4,19,0.02
2013-11-16,51.9,44.9,36.9,45.0,40.2,33.8,94,84,62,30.37,30.24,10,2,11,0.02
2013-11-17,58.7,49.0,36.0,58.0,46.3,34.2,98,91,65,30.37,29.94,17,3,19,0.01
2013-11-18,62.4,56.2,48.5,61.7,54.0,43.3,98,92,77,29.94,29.62,36,5,36,0.01
2013-11-19,50.2,41.4,34.6,43.2,30.0,23.8,80,64,55,30.27,29.69,20,4,22,0.02
2013-11-20,40.0,35.3,30.0,27.3,25.1,22.6,81,66,53,30.63,30.27,18,2,18,0.01
2013-11-21,45.5,36.4,27.9,36.7,30.7,24.8,94,80,64,30.66,30.44,8,0,8,0.38
2013-11-22,50.1,45.4,39.2,49.3,44.0,36.5,97,95,90,30.44,29.86,9,1,10,0.13
2013-11-23,47.7,43.1,34.1,46.9,32.9,19.3,98,69,46,29.90,29.80,25,4,25,0.02
2013-11-24,34.0,27.9,24.8,22.5,14.2,7.4,89,57,43,30.03,29.79,28,7,28,0.00
2013-11-25,32.4,28.1,23.7,25.6,14.6,7.4,78,57,38,30.41,30.03,23,4,27,0.00
2013-11-26,47.6,41.1,31.2,46.7,35.6,24.5,97,81,68,30.38,30.11,10,1,11,0.26
2013-11-27,60.9,54.0,41.9,60.3,53.1,39.9,98,97,93,30.11,29.17,31,5,31,0.30
2013-11-28,41.8,34.6,29.2,39.9,25.2,15.5,93,69,55,30.47,29.47,19,4,23,0.05
2013-11-29,33.9,30.3,25.6,23.4,18.7,13.7,71,62,54,30.74,30.46,15,2,16,0.00
2013-11-30,34.8,29.2,23.6,25.1,21.0,15.5,87,72,55,30.80,30.52,12,1,12,0.00
2013-12-1,48.7,42.9,28.5,47.6,39.0,24.9,96,87,70,30.52,30.00,12,2,14,0.61
2013-12-2,48.1,43.3,40.2,47.0,41.8,38.5,97,95,90,30.01,29.93,7,1,8,0.00
2013-12-3,45.2,41.8,36.9,42.6,39.7,34.4,95,92,88,29.95,29.84,13,1,13,0.00
2013-12-4,42.3,37.6,30.0,36.3,32.7,27.9,93,83,68,30.25,29.95,14,2,16,0.00
2013-12-5,54.9,45.2,29.5,54.1,43.4,27.7,98,94,88,30.27,29.99,22,4,22,0.00
2013-12-6,55.1,48.9,39.3,54.5,47.9,37.9,98,96,90,30.17,29.92,19,3,19,0.18
2013-12-7,39.8,36.8,31.9,38.0,32.9,21.5,97,86,64,30.47,30.07,20,3,20,0.39
2013-12-8,34.4,31.4,27.8,26.3,23.5,22.0,83,73,61,30.62,30.47,13,2,13,0.00
2013-12-9,47.1,39.9,33.3,46.5,38.2,25.0,98,94,71,30.52,29.88,26,5,26,0.32
2013-12-10,38.8,35.2,29.8,37.4,32.1,19.8,96,89,63,30.02,29.81,37,5,38,0.05
2013-12-11,33.4,30.6,28.6,24.2,21.6,19.4,80,69,61,30.28,30.02,37,8,37,0.00
2013-12-12,30.8,25.9,22.5,22.4,14.3,8.5,77,61,50,30.29,30.14,21,5,22,0.00
2013-12-13,31.2,27.5,22.8,21.7,16.7,12.1,73,63,54,30.37,30.04,26,7,27,0.00
2013-12-14,32.4,25.3,20.7,31.1,19.3,11.5,95,78,66,30.61,30.20,25,5,29,0.00
2013-12-15,51.4,36.0,28.3,50.9,34.2,24.5,98,93,76,30.20,29.32,34,8,34,1.36
2013-12-16,33.0,29.3,24.9,28.1,18.1,10.4,83,63,48,30.24,29.79,27,8,27,0.00
2013-12-17,41.9,28.5,15.4,40.8,22.6,9.9,97,79,54,30.31,29.84,25,3,28,0.21
2013-12-18,38.1,33.9,31.1,37.3,30.2,24.6,97,87,73,30.13,29.75,23,6,25,0.06
2013-12-19,42.9,36.4,31.7,36.3,31.1,26.2,88,81,75,30.17,30.01,21,5,21,0.00
2013-12-20,50.5,41.2,31.7,46.3,37.3,28.8,93,86,75,30.19,30.00,21,4,22,0.00
2013-12-21,53.1,48.6,42.5,49.5,46.6,40.6,97,93,85,30.05,29.96,22,6,22,0.00
2013-12-22,57.4,51.4,43.9,56.6,50.4,42.8,98,97,93,30.06,29.88,34,7,34,0.00
2013-12-23,46.5,43.9,40.1,45.7,43.0,39.3,98,97,96,30.09,29.96,18,1,18,0.40
2013-12-24,40.6,35.6,29.9,40.1,33.1,22.1,98,91,72,30.20,30.03,17,3,18,0.21
2013-12-25,30.8,24.7,19.7,23.5,19.1,12.1,89,79,66,30.59,30.20,22,4,23,0.00
2013-12-26,41.2,32.3,22.0,36.5,29.3,19.5,96,89,74,30.55,30.08,26,3,26,0.19
2013-12-27,35.8,33.3,31.4,28.4,26.6,23.6,88,77,66,30.31,30.22,21,6,23,0.01
2013-12-28,45.0,38.3,32.9,38.1,33.2,26.8,93,82,71,30.28,30.05,22,5,22,0.00
2013-12-29,53.3,42.5,36.7,52.8,40.8,34.9,98,94,86,30.09,29.31,27,4,30,0.67
2013-12-30,44.3,37.1,26.2,43.4,32.1,17.6,97,83,62,30.18,29.41,27,5,30,0.03
2013-12-31,28.1,25.9,23.7,24.9,20.0,15.6,93,78,62,30.20,30.07,24,4,37,0.00
2014-1-1,28.8,24.5,19.4,18.6,15.2,12.5,86,68,58,30.42,30.20,29,5,29,0.00
2014-1-2,32.1,27.9,22.0,30.3,25.6,17.9,95,91,81,30.40,29.71,32,7,32,0.00